Stefan Svensson

Olheiro-Chefe - Stabaek
25 Nov 2027
Quinta-feira
Processo

Personalidade

Adaptabilidade (15) Ambição (5) Controvérsia (12) Lealdade (16) Pressão (5) Profissionalismo (11) Espírito Esportivo (14) Temperamento (9)

Perfil

Estilo de Treinamento Democrático
Licença Continental Pro
Determinação 3
Gestão de Pessoas 7
Motivação 4
Disciplina 5
Satisfação no Trabalho
100%
Fadiga
0%
Função Olheiro-Chefe
Salário 54.3K p/s
Contrato 14.03.2029

Desempenho

Comportamento Bom
Eficácia do Treinamento
19%
Desenvolvimento do Jogador
45%
Prevenção de Lesões
45%
Implementação Tática
20%

Eventos Recentes

Participou de uma reunião de recrutamento agora
Participou de uma reunião de recrutamento 7d atrás
Participou de uma reunião de recrutamento 7d atrás
Participou de uma reunião de recrutamento 7d atrás
Participou de uma reunião de recrutamento 14d atrás
Participou de uma reunião de recrutamento 14d atrás
Participou de uma reunião de recrutamento 14d atrás
Participou de uma reunião de recrutamento 21d atrás

Monitorando agora

84
Jogador Clube Status Habilidade Confiança Observado Última observação Último voto
Håkon Volden Rosenborg Ativo 89 / 89 58% 1 07.02.2027 -
Mikkel Hope Haugesund Ativo 107 / 101 58% 1 01.02.2027 -
Martin Sekulić Ural Ativo 97 / 127 40% 4 31.01.2027 -
Ruben van Bommel Ferencvaros Ativo 119 / 150 40% 4 30.01.2027 -
Robert Mizo Ashanti Gold Ativo 105 / 103 40% 2 29.01.2027 -
Marcelo Allende Mamelodi Sundowns Ativo 139 / 142 40% 1 28.01.2027 Mais informações
Daniel Karlsbakk Sarpsborg 08 Ativo 131 / 126 40% 5 27.01.2027 -
Ruslan Bezrukov Rubin Ativo 107 / 125 40% 1 25.01.2027 -
Mfundo Vilakazi Kaizer Chiefs Ativo 126 / 106 40% 1 25.01.2027 Mais informações
Ruslan Apekov Torpedo Moscow Ativo 98 / 103 40% 1 24.01.2027 -
Dmitry Tsypchenko Torpedo Moscow Ativo 103 / 119 40% 2 22.01.2027 -
Pedro Marques Apollon Ativo 116 / 101 40% 1 22.01.2027 -
Lewis Morgan SuperSport United Ativo 125 / 109 40% 6 21.01.2027 -
Antonio Vutov Arda Ativo 120 / 118 40% 1 21.01.2027 -
Kagiso Malinga Bidvest Wits Ativo 90 / 108 40% 1 20.01.2027 -
Kamran Aliev SKA Khabarovsk Ativo 112 / 100 40% 1 20.01.2027 -
Nathan Ordaz Metalist Ativo 110 / 98 40% 1 19.01.2027 -
Brayan León Mamelodi Sundowns Ativo 104 / 96 40% 3 16.01.2027 -
Amur Kalmykov Spartak Kostroma Ativo 112 / 93 40% 1 16.01.2027 -
Kwadwo Duah Ludogorets Ativo 128 / 107 40% 1 14.01.2027 -
Peter Christiansen Viking Ativo 131 / 122 40% 4 13.01.2027 -
Leandro Godoy CSKA Sofia Ativo 116 / 135 40% 1 11.01.2027 -
Mandla Mahlangu Ajax Cape Town Ativo 105 / 87 40% 2 09.01.2027 -
Ammar Ramadan DAC Dunajska Streda Ativo 141 / 119 40% 1 08.01.2027 -
Yeangel Montero Naxxar Lions Ativo 87 / 104 40% 1 06.01.2027 -
Jerome Karelse Golden Arrows Ativo 101 / 108 40% 1 03.01.2027 -
Jonás Luna Santa Clara Ativo 118 / 103 40% 1 30.12.2026 -
Yago Santiago Racing Santander Ativo 118 / 129 40% 1 28.12.2026 -
Hansel Zapata Botev Plovdiv Ativo 103 / 119 40% 2 25.12.2026 -
Damir Céter Hamrun Spartans Ativo 104 / 91 40% 1 25.12.2026 -
Luka Kurtovic NK Domzale Ativo 146 / 116 40% 3 23.12.2026 -
Evidence Makgopa Orlando Pirates Ativo 115 / 128 40% 5 23.12.2026 -
Nicolás Contín MFK Ruzomberok Ativo 99 / 131 40% 2 22.12.2026 -
Etiosa Ighodaro Kaizer Chiefs Ativo 104 / 129 40% 1 21.12.2026 -
Petar Stanić Ludogorets Ativo 129 / 126 40% 1 19.12.2026 -
Andre Green AVS Ativo 100 / 91 40% 1 19.12.2026 -
Milán Tóth Vasas Ativo 95 / 115 40% 1 18.12.2026 -
Everton Bala Levski Ativo 135 / 134 40% 1 18.12.2026 -
Robert Murić Floriana Ativo 87 / 119 40% 1 17.12.2026 -
Mathias Grundetjern Valerenga Ativo 113 / 100 40% 4 12.12.2026 Observar
Vegard Erlien Tromso Ativo 122 / 128 40% 2 10.12.2026 -
Maicon Levski Ativo 118 / 114 40% 1 09.12.2026 -
Suleiman Camara Slovan Bratislava Ativo 134 / 118 40% 1 09.12.2026 -
Lechi Sadulaev Akhmat Grozny Ativo 107 / 107 40% 1 08.12.2026 -
Mandla Erasmus SuperSport United Ativo 111 / 129 40% 1 08.12.2026 -
Elias Hoff Melkersen Stromsgodset Ativo 114 / 129 40% 1 05.12.2026 -
Edarlyn Reyes Arsenal Tula Ativo 124 / 111 40% 2 29.11.2026 -
Isaac Essien WAFA Ativo 97 / 101 40% 1 29.11.2026 -
Themba Ngcobo SuperSport United Ativo 110 / 110 40% 4 19.11.2026 -
Zakaria Mugeese Odd Ativo 100 / 119 40% 2 19.11.2026 -
Breel Embolo Atlanta United FC Ativo 135 / 131 40% 2 14.11.2026 -
Tio Cipot NK Maribor Ativo 129 / 134 40% 2 14.11.2026 -
Andreas Helmersen Bodo/Glimt Ativo 121 / 108 40% 3 13.11.2026 -
Birk Risa Molde Ativo 125 / 137 40% 1 11.11.2026 -
Adrian Pereira Rosenborg Ativo 112 / 125 40% 1 11.11.2026 -
Kwame Opoku Asante Kotoko Ativo 101 / 106 40% 1 08.11.2026 -
Ieltsin Camões Tromso Ativo 125 / 102 40% 3 07.11.2026 -
Sory Diarra Haugesund Ativo 97 / 112 40% 1 07.11.2026 -
Róbert Polievka MTK Budapest Ativo 130 / 100 40% 3 01.11.2026 -
Gabriel Jesus Barcelona Ativo 163 / 160 40% 3 28.10.2026 -
Ole Sæter Valerenga Ativo 122 / 105 40% 1 28.10.2026 -
Dino Islamović Rosenborg Ativo 130 / 119 40% 2 26.10.2026 -
Timothy Zechariah Rivers United Ativo 95 / 106 40% 1 23.10.2026 -
Stephen Humphrys Bradford City Ativo 121 / 93 40% 1 18.10.2026 -
Ola Brynhildsen Bodo/Glimt Ativo 120 / 132 40% 1 17.10.2026 -
Veton Berisha Viking Ativo 120 / 126 40% 1 14.10.2026 -
Alexandr Yushin Torpedo Moscow Ativo 112 / 101 40% 1 10.10.2026 -
Martin Samuelsen Lokomotiv Sofia Ativo 101 / 95 40% 2 09.10.2026 -
Vetle Walle Egeli Sandefjord Ativo 102 / 104 40% 1 07.10.2026 -
Mathias Kjølø Rosenborg Ativo 125 / 112 40% 1 07.10.2026 -
Kristian Eriksen Molde Ativo 117 / 122 40% 2 04.10.2026 Mais informações
Ramiro Ruiz Rodríguez Atlético Tucumán Ativo 132 / 137 40% 3 30.09.2026 -
Ruslan Ozobic Inter Ativo 120 / 112 40% 1 29.09.2026 -
Matty Stevens AFC Wimbledon Ativo 120 / 82 40% 1 29.09.2026 -
Mathias Sauer Sandefjord Ativo 103 / 101 40% 1 26.09.2026 -
Dennis Gjengaar Valerenga Ativo 110 / 110 40% 2 25.09.2026 -
Mohamed Ofkir Valerenga Ativo 111 / 113 40% 2 25.09.2026 -
Andreas Gruber DAC Dunajska Streda Ativo 127 / 106 40% 1 22.09.2026 -
Richard Celis Zamora Ativo 103 / 101 40% 1 20.09.2026 -
Axel Pérez NK Domzale Ativo 118 / 123 40% 1 17.09.2026 -
José Martínes CSKA 1948 Ativo 122 / 100 40% 1 17.09.2026 -
Tashreeq Matthews Mamelodi Sundowns Ativo 107 / 114 40% 1 16.09.2026 -
Lucas Ravn-Haren Valerenga Ativo 97 / 91 40% 1 15.09.2026 -
Ozziel Herrera Tigres Ativo 108 / 132 40% 1 01.08.2026 -